• In Uzbekistan
  • List of Countries
  • For 7 days
  • Water Temperature
  • Weather Map
  • Weather Widgets
  • user-avatar
    Login

    Hourly Weather Kitzbuhel

    Today, 28 February, Friday

    Time Temperature Precipitation Wind Pressure Humidity
    00:00 -6°C° 0.5 mm 5 mps 664 mmHg 88%
    01:00 -6°C° 0.5 mm 6 mps 665 mmHg 92%
    02:00 -6°C° 1.3 mm 5 mps 666 mmHg 93%
    03:00 -6°C° 1.3 mm 5 mps 667 mmHg 94%
    04:00 -5°C° 1.3 mm 4 mps 668 mmHg 95%
    05:00 -5°C° 1.5 mm 4 mps 669 mmHg 95%
    06:00 -7°C° 1.5 mm 4 mps 670 mmHg 95%
    07:00 -7°C° 1.5 mm 4 mps 672 mmHg 95%
    08:00 -7°C° 0.8 mm 4 mps 673 mmHg 93%
    09:00 -5°C° 0.8 mm 4 mps 674 mmHg 91%
    10:00 -5°C° 0.8 mm 4 mps 675 mmHg 88%
    11:00 -4°C° 0.4 mm 4 mps 675 mmHg 84%
    12:00 -2°C° 0.4 mm 3 mps 676 mmHg 80%
    13:00 -2°C° 0.4 mm 3 mps 676 mmHg 76%
    14:00 -1°C° 0.1 mm 2 mps 676 mmHg 75%
    15:00 +1°C° 0.1 mm 1 mps 676 mmHg 74%
    16:00 0°C° 0.1 mm 0 mps 676 mmHg 74%
    17:00 -1°C° 0 mm 1 mps 676 mmHg 74%
    18:00 -3°C° 0 mm 1 mps 675 mmHg 75%
    19:00 -6°C° 0 mm 2 mps 675 mmHg 76%
    20:00 -6°C° 0 mm 2 mps 675 mmHg 74%
    21:00 -6°C° 0 mm 2 mps 675 mmHg 71%
    22:00 -7°C° 0 mm 3 mps 675 mmHg 69%
    23:00 -6°C° 0 mm 3 mps 675 mmHg 69%

    Tomorrow, 29 February, Saturday

    Time Temperature Precipitation Wind Pressure Humidity
    00:00 -6°C° 0 mm 3 mps 675 mmHg 69%
    01:00 -5°C° 0 mm 3 mps 675 mmHg 68%
    02:00 -5°C° 0 mm 3 mps 674 mmHg 69%
    03:00 -5°C° 0 mm 3 mps 674 mmHg 70%
    04:00 -5°C° 0 mm 3 mps 673 mmHg 70%
    05:00 -5°C° 0 mm 3 mps 673 mmHg 71%
    06:00 -4°C° 0 mm 3 mps 672 mmHg 71%
    07:00 -4°C° 0 mm 3 mps 672 mmHg 72%
    08:00 -2°C° 0 mm 3 mps 672 mmHg 74%
    09:00 0°C° 0 mm 3 mps 671 mmHg 75%
    10:00 +1°C° 0 mm 3 mps 671 mmHg 77%
    11:00 +2°C° 0 mm 3 mps 670 mmHg 78%
    12:00 +3°C° 0 mm 3 mps 669 mmHg 80%
    13:00 +3°C° 0 mm 4 mps 669 mmHg 82%
    14:00 +3°C° 0 mm 4 mps 668 mmHg 82%
    15:00 +3°C° 0 mm 3 mps 668 mmHg 81%
    16:00 +2°C° 0 mm 3 mps 667 mmHg 81%
    17:00 +1°C° 0 mm 3 mps 667 mmHg 81%
    18:00 -1°C° 0 mm 3 mps 667 mmHg 81%
    19:00 -2°C° 0 mm 3 mps 667 mmHg 80%
    20:00 -2°C° 0 mm 3 mps 667 mmHg 80%
    21:00 -4°C° 0 mm 3 mps 668 mmHg 81%
    22:00 -4°C° 0 mm 3 mps 668 mmHg 81%
    23:00 -3°C° 0 mm 2 mps 668 mmHg 81%

    Day after tomorrow, 1 March, Sunday

    Time Temperature Precipitation Wind Pressure Humidity
    00:00 -3°C° 0 mm 2 mps 668 mmHg 81%
    01:00 -4°C° 0 mm 2 mps 668 mmHg 81%
    02:00 -4°C° 0 mm 2 mps 668 mmHg 81%
    03:00 -4°C° 0 mm 2 mps 668 mmHg 82%
    04:00 -4°C° 0 mm 2 mps 668 mmHg 82%
    05:00 -4°C° 0 mm 2 mps 668 mmHg 82%
    06:00 -4°C° 0 mm 2 mps 668 mmHg 83%
    07:00 -2°C° 0 mm 1 mps 668 mmHg 83%
    08:00 0°C° 0 mm 1 mps 668 mmHg 84%
    09:00 +1°C° 0 mm 1 mps 668 mmHg 84%
    10:00 +3°C° 0 mm 1 mps 668 mmHg 85%
    11:00 +3°C° 0.1 mm 1 mps 668 mmHg 87%
    12:00 +4°C° 0.1 mm 1 mps 668 mmHg 88%
    13:00 +5°C° 0.1 mm 1 mps 668 mmHg 90%
    14:00 +5°C° 0.1 mm 1 mps 667 mmHg 90%
    15:00 +5°C° 0.1 mm 1 mps 666 mmHg 91%
    16:00 +5°C° 0.1 mm 1 mps 666 mmHg 92%
    17:00 +4°C° 0 mm 1 mps 666 mmHg 92%
    18:00 +3°C° 0 mm 1 mps 665 mmHg 93%
    19:00 +2°C° 0 mm 1 mps 665 mmHg 94%
    20:00 +1°C° 0 mm 1 mps 664 mmHg 92%
    21:00 +1°C° 0 mm 1 mps 664 mmHg 91%
    22:00 -2°C° 0 mm 2 mps 664 mmHg 89%
    23:00 -2°C° 0 mm 2 mps 664 mmHg 89%

    2 March, Monday

    Time Temperature Precipitation Wind Pressure Humidity
    00:00 -2°C° 0 mm 2 mps 664 mmHg 88%
    01:00 -2°C° 0 mm 2 mps 663 mmHg 87%
    02:00 +1°C° 0.8 mm 1 mps 664 mmHg 90%
    03:00 +1°C° 0.8 mm 1 mps 664 mmHg 93%
    04:00 +1°C° 0.8 mm 1 mps 664 mmHg 95%
    05:00 -1°C° 0.2 mm 0 mps 664 mmHg 95%
    06:00 -1°C° 0.2 mm 0 mps 664 mmHg 94%
    07:00 -1°C° 0.2 mm 0 mps 665 mmHg 94%
    08:00 +1°C° 0 mm 1 mps 665 mmHg 91%
    09:00 +2°C° 0 mm 1 mps 665 mmHg 87%
    10:00 +4°C° 0 mm 1 mps 665 mmHg 84%
    11:00 +4°C° 0 mm 1 mps 664 mmHg 84%
    12:00 +5°C° 0 mm 1 mps 664 mmHg 85%
    13:00 +6°C° 0 mm 1 mps 664 mmHg 85%
    14:00 +6°C° 0 mm 1 mps 663 mmHg 86%
    15:00 +6°C° 0 mm 1 mps 663 mmHg 87%
    16:00 +6°C° 0 mm 1 mps 662 mmHg 88%
    17:00 +4°C° 0.5 mm 1 mps 663 mmHg 91%
    18:00 +3°C° 0.5 mm 1 mps 663 mmHg 94%
    19:00 +1°C° 0.5 mm 2 mps 663 mmHg 96%
    20:00 +2°C° 2.1 mm 1 mps 663 mmHg 96%
    21:00 +1°C° 2.1 mm 1 mps 664 mmHg 96%
    22:00 +1°C° 2.1 mm 1 mps 664 mmHg 97%
    23:00 +1°C° 0.2 mm 1 mps 664 mmHg 96%

    3 March, Tuesday

    Time Temperature Precipitation Wind Pressure Humidity
    00:00 -1°C° 0.2 mm 0 mps 664 mmHg 96%
    01:00 -1°C° 0.2 mm 0 mps 664 mmHg 95%
    02:00 -2°C° 0.1 mm 0 mps 664 mmHg 95%
    03:00 -2°C° 0.1 mm 0 mps 665 mmHg 95%
    04:00 -2°C° 0.1 mm 0 mps 665 mmHg 95%
    05:00 -3°C° 0 mm 0 mps 665 mmHg 95%
    06:00 -3°C° 0 mm 0 mps 666 mmHg 95%
    07:00 -3°C° 0 mm 0 mps 666 mmHg 95%
    08:00 -1°C° 0.2 mm 1 mps 667 mmHg 94%
    09:00 0°C° 0.2 mm 1 mps 668 mmHg 93%
    10:00 +1°C° 0.2 mm 1 mps 668 mmHg 92%
    11:00 +2°C° 0.3 mm 1 mps 668 mmHg 89%
    12:00 +2°C° 0.3 mm 1 mps 669 mmHg 86%
    13:00 +3°C° 0.3 mm 1 mps 669 mmHg 83%
    14:00 +3°C° 0.2 mm 1 mps 669 mmHg 83%
    15:00 +2°C° 0.2 mm 1 mps 669 mmHg 83%
    16:00 +2°C° 0.2 mm 1 mps 669 mmHg 83%
    17:00 +1°C° 0.1 mm 1 mps 669 mmHg 86%
    18:00 -1°C° 0.1 mm 1 mps 669 mmHg 88%
    19:00 -2°C° 0.1 mm 1 mps 669 mmHg 91%
    20:00 -3°C° 0 mm 1 mps 670 mmHg 90%
    21:00 -3°C° 0 mm 1 mps 670 mmHg 89%
    22:00 -4°C° 0 mm 1 mps 670 mmHg 88%
    23:00 -4°C° 0 mm 1 mps 670 mmHg 87%

    4 March, Wednesday

    Time Temperature Precipitation Wind Pressure Humidity
    00:00 -4°C° 0 mm 1 mps 670 mmHg 86%
    01:00 -4°C° 0 mm 1 mps 670 mmHg 84%
    02:00 -6°C° 0 mm 2 mps 669 mmHg 82%
    03:00 -6°C° 0 mm 2 mps 669 mmHg 80%
    04:00 -6°C° 0 mm 2 mps 668 mmHg 78%
    05:00 -6°C° 0 mm 2 mps 668 mmHg 77%
    06:00 -6°C° 0 mm 2 mps 668 mmHg 75%
    07:00 -6°C° 0 mm 2 mps 668 mmHg 74%
    08:00 -4°C° 0 mm 2 mps 668 mmHg 73%
    09:00 -1°C° 0 mm 2 mps 668 mmHg 72%
    10:00 +2°C° 0 mm 2 mps 668 mmHg 71%
    11:00 +3°C° 0 mm 2 mps 667 mmHg 72%
    12:00 +4°C° 0 mm 2 mps 667 mmHg 74%
    13:00 +5°C° 0 mm 1 mps 666 mmHg 75%
    14:00 +5°C° 0 mm 1 mps 666 mmHg 79%
    15:00 +5°C° 0 mm 1 mps 665 mmHg 82%
    16:00 +5°C° 0 mm 1 mps 665 mmHg 85%
    17:00 +4°C° 0.1 mm 1 mps 665 mmHg 87%
    18:00 +3°C° 0.1 mm 1 mps 665 mmHg 89%
    19:00 +1°C° 0.1 mm 1 mps 666 mmHg 91%
    20:00 +1°C° 0.1 mm 1 mps 666 mmHg 93%
    21:00 +1°C° 0.1 mm 1 mps 666 mmHg 94%
    22:00 +1°C° 0.1 mm 1 mps 666 mmHg 96%
    23:00 +1°C° 0.2 mm 1 mps 666 mmHg 95%
    Show more